This is the latest recevied weather packets stored in our database for station/object AC4AG. If no packets are shown the sender has not sent any weather packets the latest 10 day(s).
| Time | Temp. | Humidity | Pressure | Rain* | Wind** | Luminosity | Snow |
|---|---|---|---|---|---|---|---|
| 1777599396 | 10° C | 69% | 1014.9 hPa | 0 mm | - | 0 W/m² | - |
| 1777599094 | 10° C | 68% | 1014.8 hPa | 0 mm | - | 0 W/m² | - |
| 1777598792 | 10.56° C | 65% | 1014.9 hPa | 0 mm | - | 0 W/m² | - |
| 1777598487 | 10.56° C | 64% | 1014.8 hPa | 0 mm | - | 0 W/m² | - |
| 1777598186 | 10.56° C | 65% | 1014.8 hPa | 0 mm | - | 0 W/m² | - |
| 1777597886 | 11.11° C | 62% | 1014.8 hPa | 0 mm | - | 0 W/m² | - |
| 1777597580 | 11.11° C | 60% | 1014.7 hPa | 0 mm | - | 0 W/m² | - |
| 1777597276 | 11.11° C | 59% | 1014.5 hPa | 0 mm | - | 0 W/m² | - |
| 1777596971 | 11.67° C | 59% | 1014.4 hPa | 0 mm | - | 0 W/m² | - |
| 1777596668 | 11.67° C | 59% | 1014.6 hPa | 0 mm | - | 0 W/m² | - |
| 1777596366 | 11.67° C | 59% | 1014.5 hPa | 0 mm | - | 0 W/m² | - |
| 1777596063 | 11.67° C | 59% | 1014.4 hPa | 0 mm | - | 1 W/m² | - |
| 1777595763 | 12.22° C | 58% | 1014.3 hPa | 0 mm | - | 1 W/m² | - |
| 1777595459 | 12.22° C | 57% | 1014.2 hPa | 0 mm | - | 2 W/m² | - |
| 1777595155 | 12.22° C | 57% | 1014.2 hPa | 0 mm | - | 5 W/m² | - |
| 1777594851 | 12.78° C | 57% | 1014.3 hPa | 0 mm | - | 8 W/m² | - |
| 1777594548 | 12.78° C | 55% | 1014.2 hPa | 0 mm | - | 11 W/m² | - |
| 1777594244 | 12.78° C | 54% | 1014 hPa | 0 mm | - | 15 W/m² | - |
| 1777593939 | 12.78° C | 54% | 1014.2 hPa | 0 mm | - | 18 W/m² | - |
| 1777593636 | 13.33° C | 53% | 1014.1 hPa | 0 mm | - | 23 W/m² | - |
| 1777593332 | 13.89° C | 53% | 1013.9 hPa | 0 mm | - | 33 W/m² | - |
| 1777593027 | 13.89° C | 52% | 1013.6 hPa | 0 mm | - | 43 W/m² | - |
| 1777592721 | 14.44° C | 51% | 1013.9 hPa | 0 mm | - | 51 W/m² | - |
| 1777592417 | 14.44° C | 51% | 1014 hPa | 0 mm | - | 60 W/m² | - |
| 1777592112 | 14.44° C | 50% | 1013.9 hPa | 0 mm | - | 63 W/m² | - |
* Rain latest hour (hover to see other rain measurements)
** Current wind speed in m/s (hover to see current wind gust speed)